EW5545 Weather Reports


Display with metric or nautical units.
time (UTC)temp
F
wind
direction
speed
MPH
gust
MPH
rain 1hr
in
rain 24hr
in
rain mn
in
humidity
%
barometer
mb
20260901001016 75 254 0.0 2.0 0.00 0.00 0.00 86 1015.0
20260901000514 75 254 0.0 0.0 0.00 0.00 0.00 86 1015.0
20260901000015 76 254 0.0 1.0 0.00 0.00 0.00 86 1015.1
20260831235512 76 254 0.0 0.0 0.00 0.00 0.00 86 1015.0
20260831234015 76 286 1.0 2.0 0.00 0.00 0.00 86 1015.1
20260831233512 76 254 0.0 1.0 0.00 0.00 0.00 86 1015.1
20260831233016 76 18 0.0 3.0 0.00 0.00 0.00 86 1015.0
20260831232513 76 36 1.0 3.0 0.00 0.00 0.00 86 1015.0
20260831232014 76 351 0.0 3.0 0.00 0.00 0.00 86 1015.0
20260831231515 76 257 0.0 2.0 0.00 0.00 0.00 86 1015.0
20260831231016 76 347 0.0 2.0 0.00 0.00 0.00 86 1015.0
20260831225512 77 32 0.0 2.0 0.00 0.00 0.00 86 1015.0
20260831225015 77 15 0.0 2.0 0.00 0.00 0.00 86 1014.9
20260831224512 77 74 0.0 2.0 0.00 0.00 0.00 86 1014.9
20260831224016 77 43 0.0 2.0 0.00 0.00 0.00 86 1015.0
20260831223015 78 59 0.0 3.0 0.00 0.00 0.00 86 1015.0
20260831222509 78 59 0.0 3.0 0.00 0.00 0.00 86 1015.0
20260831222012 78 3 0.0 3.0 0.00 0.00 0.00 86 1015.0
20260831221515 79 50 2.0 5.0 0.00 0.00 0.00 86 1014.9
20260831221019 79 64 1.0 3.0 0.00 0.00 0.00 86 1014.9
20260831220514 79 43 1.0 3.0 0.00 0.00 0.00 86 1014.9
20260831220016 79 55 1.0 5.0 0.00 0.00 0.00 86 1014.9
20260831215515 79 165 0.0 1.0 0.00 0.00 0.00 86 1014.9
20260831214008 78 166 0.0 1.0 0.00 0.00 0.00 83 1014.8
20260831213515 78 166 0.0 0.0 0.00 0.00 0.00 81 1014.7
20260831213015 79 166 1.0 2.0 0.00 0.00 0.00 80 1014.7
20260831212517 80 29 0.0 0.0 0.00 0.00 0.00 82 1014.7
20260831211509 80 321 0.0 2.0 0.00 0.00 0.00 80 1014.6
20260831211015 80 43 0.0 2.0 0.00 0.00 0.00 79 1014.6
20260831210513 80 47 1.0 2.0 0.00 0.00 0.00 78 1014.6
20260831210013 80 327 1.0 3.0 0.00 0.00 0.00 77 1014.7
20260831205512 80 270 1.0 3.0 0.00 0.00 0.00 77 1014.6
20260831204509 80 330 1.0 3.0 0.00 0.00 0.00 79 1014.6
20260831204016 80 320 0.0 2.0 0.00 0.00 0.00 79 1014.5
20260831203513 80 257 0.0 1.0 0.00 0.00 0.00 79 1014.5
20260831203016 80 254 0.0 1.0 0.00 0.00 0.00 79 1014.4
20260831202512 80 254 1.0 2.0 0.00 0.00 0.00 79 1014.5
20260831202015 79 254 1.0 2.0 0.00 0.00 0.00 80 1014.5
20260831201507 79 254 1.0 3.0 0.00 0.00 0.00 80 1014.4
20260831201013 79 254 0.0 2.0 0.00 0.00 0.00 80 1014.4
20260831200509 79 254 0.0 1.0 0.00 0.00 0.00 80 1014.3
20260831200013 79 254 0.0 2.0 0.00 0.00 0.00 79 1014.3
20260831195012 81 254 0.0 1.0 0.00 0.00 0.00 78 1014.2
20260831194515 81 254 0.0 0.0 0.00 0.00 0.00 78 1014.1
20260831194015 81 254 0.0 1.0 0.00 0.00 0.00 79 1014.1
20260831193509 80 254 0.0 1.0 0.00 0.00 0.00 80 1014.0
20260831192512 80 254 0.0 0.0 0.00 0.00 0.00 79 1014.0
20260831192013 80 254 0.0 1.0 0.00 0.00 0.00 78 1014.0
20260831191515 81 254 1.0 2.0 0.00 0.00 0.00 78 1014.0
20260831191015 82 263 0.0 1.0 0.00 0.00 0.00 77 1014.0
20260831190510 82 320 0.0 1.0 0.00 0.00 0.00 76 1014.0
20260831190015 82 318 0.0 2.0 0.00 0.00 0.00 76 1014.0
20260831185013 82 325 0.0 1.0 0.00 0.00 0.00 76 1013.9
20260831184511 83 325 0.0 1.0 0.00 0.00 0.00 77 1013.8
20260831183515 83 323 1.0 2.0 0.00 0.00 0.00 77 1013.8
20260831183016 83 299 0.0 1.0 0.00 0.00 0.00 76 1013.7
20260831182516 83 298 0.0 0.0 0.00 0.00 0.00 76 1013.7
20260831182015 83 297 0.0 0.0 0.00 0.00 0.00 76 1013.7
20260831181509 83 297 0.0 0.0 0.00 0.00 0.00 76 1013.6
20260831181014 83 291 0.0 0.0 0.00 0.00 0.00 76 1013.5
20260831180514 83 289 0.0 2.0 0.00 0.00 0.00 76 1013.5
20260831180015 83 277 1.0 3.0 0.00 0.00 0.00 75 1013.5
20260831175515 83 239 0.0 1.0 0.00 0.00 0.00 75 1013.5
20260831175013 83 239 0.0 0.0 0.00 0.00 0.00 75 1013.4
20260831174515 83 239 1.0 1.0 0.00 0.00 0.00 75 1013.5
20260831173515 83 239 0.0 1.0 0.00 0.00 0.00 75 1013.6
20260831173009 83 239 0.0 1.0 0.00 0.00 0.00 75 1013.6
20260831172512 83 239 0.0 1.0 0.00 0.00 0.00 75 1013.7
20260831171507 83 239 1.0 2.0 0.00 0.00 0.00 74 1013.7
20260831171011 83 52 0.0 0.0 0.00 0.00 0.00 74 1013.7
20260831170512 83 52 0.0 0.0 0.00 0.00 0.00 73 1013.8
20260831170016 83 52 1.0 2.0 0.00 0.00 0.00 73 1013.8
20260831165515 83 37 1.0 5.0 0.00 0.00 0.00 73 1013.7
20260831165008 84 51 2.0 5.0 0.00 0.00 0.00 73 1013.8
20260831164512 84 51 2.0 3.0 0.00 0.00 0.00 72 1013.7
20260831164009 84 51 2.0 5.0 0.00 0.00 0.00 72 1013.6
20260831163512 84 358 2.0 5.0 0.00 0.00 0.00 71 1013.5
20260831163016 84 44 2.0 6.0 0.00 0.00 0.00 72 1013.5
20260831162015 85 44 4.0 7.0 0.00 0.00 0.00 69 1013.7
20260831161513 85 49 5.0 8.0 0.00 0.00 0.00 68 1013.7
20260831160511 86 50 3.0 6.0 0.00 0.00 0.00 67 1013.5
20260831155512 86 48 6.0 9.0 0.00 0.00 0.00 66 1013.5
20260831155014 86 207 2.0 13.0 0.00 0.00 0.00 66 1013.3
20260831154510 86 49 3.0 12.0 0.00 0.00 0.00 67 1013.1
20260831154010 86 42 5.0 10.0 0.00 0.00 0.00 64 1013.2
20260831153508 87 44 4.0 8.0 0.00 0.00 0.00 62 1013.2
20260831153009 87 43 4.0 8.0 0.00 0.00 0.00 65 1013.2
20260831152015 87 42 2.0 9.0 0.00 0.00 0.00 64 1013.5
20260831151513 87 42 4.0 7.0 0.00 0.00 0.00 63 1013.5
20260831151009 87 40 4.0 8.0 0.00 0.00 0.00 64 1013.5
20260831150512 87 33 5.0 10.0 0.00 0.00 0.00 64 1013.5
20260831150015 87 45 3.0 12.0 0.00 0.00 0.00 63 1013.4
20260831145512 87 34 6.0 12.0 0.00 0.00 0.00 63 1013.5
20260831145015 87 43 3.0 9.0 0.00 0.00 0.00 63 1013.6
20260831144508 87 49 4.0 8.0 0.00 0.00 0.00 63 1013.7
20260831144007 88 46 5.0 9.0 0.00 0.00 0.00 62 1013.8
20260831143509 88 44 3.0 9.0 0.00 0.00 0.00 61 1013.7
20260831143009 88 46 3.0 12.0 0.00 0.00 0.00 62 1013.5
20260831142512 88 48 6.0 12.0 0.00 0.00 0.00 60 1013.4
20260831142013 88 42 7.0 13.0 0.00 0.00 0.00 61 1013.3
20260831141515 89 45 7.0 12.0 0.00 0.00 0.00 60 1013.2
20260831141009 89 35 6.0 10.0 0.00 0.00 0.00 59 1013.1
20260831140512 89 48 5.0 10.0 0.00 0.00 0.00 59 1013.1
20260831140013 89 44 4.0 12.0 0.00 0.00 0.00 58 1013.0
20260831135512 89 41 4.0 12.0 0.00 0.00 0.00 57 1013.0
20260831135013 89 41 8.0 15.0 0.00 0.00 0.00 59 1013.0
20260831134509 90 35 6.0 9.0 0.00 0.00 0.00 59 1013.0
20260831134013 90 46 7.0 12.0 0.00 0.00 0.00 58 1013.0
20260831133512 90 53 5.0 10.0 0.00 0.00 0.00 58 1013.1
20260831132512 90 48 6.0 13.0 0.00 0.00 0.00 56 1013.2
20260831132013 90 43 5.0 10.0 0.00 0.00 0.00 58 1013.2
20260831131507 90 44 6.0 12.0 0.00 0.00 0.00 57 1013.4
20260831130509 90 48 6.0 10.0 0.00 0.00 0.00 58 1013.5
20260831130015 89 49 3.0 8.0 0.00 0.00 0.00 60 1013.4
20260831125512 90 46 5.0 16.0 0.00 0.00 0.00 60 1013.5
20260831124507 90 40 5.0 9.0 0.00 0.00 0.00 60 1013.5
20260831124007 90 43 5.0 10.0 0.00 0.00 0.00 60 1013.6
20260831123512 90 36 5.0 12.0 0.00 0.00 0.00 60 1013.5
20260831123016 90 48 7.0 13.0 0.00 0.00 0.00 60 1013.6
20260831122006 89 49 6.0 12.0 0.00 0.00 0.00 62 1013.6
20260831121513 90 50 7.0 12.0 0.00 0.00 0.00 59 1013.7
20260831121013 90 45 7.0 12.0 0.00 0.00 0.00 57 1013.7
20260831120514 90 57 5.0 10.0 0.00 0.00 0.00 57 1013.7
20260831120015 90 47 3.0 10.0 0.00 0.00 0.00 58 1013.8
20260831115512 90 39 5.0 9.0 0.00 0.00 0.00 58 1013.8
20260831115009 90 44 6.0 12.0 0.00 0.00 0.00 56 1013.8
20260831114507 89 37 6.0 12.0 0.00 0.00 0.00 59 1013.8
20260831113512 90 52 5.0 7.0 0.00 0.00 0.00 58 1013.8
20260831113016 89 44 4.0 9.0 0.00 0.00 0.00 59 1013.9
20260831112508 89 45 6.0 10.0 0.00 0.00 0.00 60 1013.9
20260831112015 90 48 5.0 12.0 0.00 0.00 0.00 60 1013.9
20260831111509 90 46 3.0 8.0 0.00 0.00 0.00 57 1013.9
20260831111015 89 33 2.0 9.0 0.00 0.00 0.00 59 1014.0
20260831110508 89 54 4.0 9.0 0.00 0.00 0.00 60 1014.0
20260831110016 90 52 3.0 9.0 0.00 0.00 0.00 59 1014.1
20260831105512 89 41 1.0 5.0 0.00 0.00 0.00 60 1014.1
20260831105007 89 41 3.0 8.0 0.00 0.00 0.00 60 1014.1
20260831104013 89 37 5.0 10.0 0.00 0.00 0.00 60 1014.1
20260831103512 89 57 4.0 8.0 0.00 0.00 0.00 61 1014.1
20260831103016 89 38 2.0 8.0 0.00 0.00 0.00 61 1014.1
20260831102512 89 46 2.0 8.0 0.00 0.00 0.00 62 1014.1
20260831102015 88 39 6.0 10.0 0.00 0.00 0.00 63 1014.1
20260831101013 87 53 5.0 12.0 0.00 0.00 0.00 64 1014.1
20260831100512 88 46 5.0 10.0 0.00 0.00 0.00 62 1014.0
20260831100015 88 47 5.0 9.0 0.00 0.00 0.00 63 1014.1
20260831095509 87 44 3.0 9.0 0.00 0.00 0.00 64 1014.1
20260831095009 87 41 4.0 8.0 0.00 0.00 0.00 63 1014.1
20260831094007 87 48 3.0 8.0 0.00 0.00 0.00 64 1014.1
20260831093015 87 68 2.0 5.0 0.00 0.00 0.00 64 1014.0
20260831092507 87 33 5.0 14.0 0.00 0.00 0.00 65 1014.1
20260831092013 87 44 5.0 12.0 0.00 0.00 0.00 65 1014.1
20260831091509 86 46 5.0 12.0 0.00 0.00 0.00 64 1014.1
20260831091014 87 38 5.0 12.0 0.00 0.00 0.00 64 1014.0
20260831090512 86 50 4.0 10.0 0.00 0.00 0.00 65 1014.1
20260831084513 85 58 5.0 8.0 0.00 0.00 0.00 66 1014.0
20260831083007 85 32 2.0 6.0 0.00 0.00 0.00 68 1013.9
20260831082506 85 45 3.0 6.0 0.00 0.00 0.00 68 1013.9
20260831082012 85 47 2.0 7.0 0.00 0.00 0.00 69 1013.8
20260831081016 85 41 5.0 10.0 0.00 0.00 0.00 68 1013.8
20260831080520 84 45 3.0 6.0 0.00 0.00 0.00 70 1013.9
20260831080014 84 31 5.0 9.0 0.00 0.00 0.00 70 1013.8
20260831075509 84 52 4.0 10.0 0.00 0.00 0.00 72 1013.8
20260831075013 83 52 4.0 10.0 0.00 0.00 0.00 72 1013.8
20260831074513 83 49 3.0 8.0 0.00 0.00 0.00 73 1013.8
20260831074009 83 42 3.0 10.0 0.00 0.00 0.00 74 1013.8
20260831073512 83 35 5.0 10.0 0.00 0.00 0.00 74 1013.8
20260831073016 83 345 3.0 9.0 0.00 0.00 0.00 74 1013.7
20260831072015 83 38 2.0 8.0 0.00 0.00 0.00 76 1013.6
20260831071508 82 46 4.0 10.0 0.00 0.00 0.00 76 1013.6
20260831071008 82 36 3.0 8.0 0.00 0.00 0.00 76 1013.6
20260831070507 82 49 3.0 6.0 0.00 0.00 0.00 77 1013.6
20260831065509 82 290 2.0 7.0 0.00 0.00 0.00 77 1013.6
20260831065011 82 280 2.0 5.0 0.00 0.00 0.00 77 1013.6
20260831064014 81 15 3.0 6.0 0.00 0.00 0.00 78 1013.7
20260831063509 81 23 3.0 7.0 0.00 0.00 0.00 78 1013.7
20260831063016 81 309 3.0 6.0 0.00 0.00 0.00 79 1013.7
20260831062014 80 336 1.0 3.0 0.00 0.00 0.00 79 1013.7
20260831061515 80 258 2.0 7.0 0.00 0.00 0.00 79 1013.7
20260831061015 80 317 1.0 7.0 0.00 0.00 0.00 80 1013.7
20260831060512 79 309 2.0 5.0 0.00 0.00 0.00 80 1013.7
20260831060013 79 21 1.0 5.0 0.00 0.00 0.00 81 1013.7
20260831055517 79 251 1.0 5.0 0.00 0.00 0.00 80 1013.8
20260831055008 79 286 0.0 3.0 0.00 0.00 0.00 80 1013.7
20260831054518 79 346 1.0 3.0 0.00 0.00 0.00 81 1013.7
20260831054015 78 253 1.0 3.0 0.00 0.00 0.00 82 1013.7
20260831053512 78 266 0.0 2.0 0.00 0.00 0.00 82 1013.6
20260831053015 77 295 1.0 3.0 0.00 0.00 0.00 83 1013.6
20260831052507 77 263 0.0 3.0 0.00 0.00 0.00 83 1013.6
20260831052012 77 251 1.0 3.0 0.00 0.00 0.00 83 1013.6
20260831051016 76 250 2.0 5.0 0.00 0.00 0.00 84 1013.5
20260831050509 76 249 2.0 5.0 0.00 0.00 0.00 84 1013.6
20260831050015 76 253 2.0 5.0 0.00 0.00 0.00 84 1013.5
20260831045514 76 251 2.0 6.0 0.00 0.00 0.00 84 1013.5
20260831045014 76 248 2.0 3.0 0.00 0.00 0.00 84 1013.5
20260831044511 76 247 1.0 3.0 0.00 0.00 0.00 84 1013.5
20260831044007 76 246 0.0 2.0 0.00 0.00 0.00 84 1013.5
20260831043512 76 246 0.0 3.0 0.00 0.00 0.00 84 1013.4
20260831043015 76 246 0.0 3.0 0.00 0.00 0.00 83 1013.4
20260831042512 76 246 0.0 1.0 0.00 0.00 0.00 83 1013.3
20260831042007 77 246 0.0 1.0 0.00 0.00 0.00 83 1013.3
20260831040512 77 243 0.0 3.0 0.00 0.00 0.00 83 1013.3
20260831040016 77 243 1.0 3.0 0.00 0.00 0.00 82 1013.3
20260831034013 78 278 0.0 2.0 0.00 0.00 0.00 83 1013.2
20260831033512 78 28 1.0 3.0 0.00 0.00 0.00 83 1013.2
20260831032508 78 265 1.0 5.0 0.00 0.00 0.00 82 1013.2
20260831032007 78 280 0.0 3.0 0.00 0.00 0.00 82 1013.2
20260831031009 78 273 1.0 5.0 0.00 0.00 0.00 82 1013.2
20260831030007 79 302 1.0 3.0 0.00 0.00 0.00 81 1013.2
20260831024508 79 259 2.0 3.0 0.00 0.00 0.00 81 1013.2
20260831024012 79 278 2.0 5.0 0.00 0.00 0.00 81 1013.2
20260831023507 79 269 2.0 3.0 0.00 0.00 0.00 81 1013.1
20260831023015 79 299 2.0 3.0 0.00 0.00 0.00 81 1013.1
20260831022512 79 299 2.0 3.0 0.00 0.00 0.00 80 1013.1
20260831022015 79 267 1.0 6.0 0.00 0.00 0.00 80 1013.1
20260831021509 79 302 2.0 6.0 0.00 0.00 0.00 81 1013.2
20260831021013 79 0 3.0 7.0 0.00 0.00 0.00 81 1013.2
20260831020516 79 33 4.0 8.0 0.00 0.00 0.00 82 1013.2
20260831020007 80 24 3.0 8.0 0.00 0.00 0.00 82 1013.2
20260831015009 80 336 3.0 8.0 0.00 0.00 0.00 83 1013.3
20260831014512 80 15 3.0 8.0 0.00 0.00 0.00 83 1013.2
20260831013015 80 21 2.0 7.0 0.00 0.00 0.00 83 1013.1
20260831012512 80 353 3.0 6.0 0.00 0.00 0.00 82 1013.1
20260831010508 80 344 5.0 10.0 0.00 0.00 0.00 82 1013.1
20260831005513 80 18 4.0 8.0 0.00 0.00 0.00 81 1013.1
20260831004015 79 14 5.0 9.0 0.00 0.00 0.00 78 1013.1
20260831003015 79 357 4.0 9.0 0.00 0.00 0.00 77 1013.0
20260831002506 80 290 2.0 10.0 0.00 0.00 0.00 76 1012.9
20260831002009 79 312 2.0 5.0 0.00 0.00 0.00 76 1013.0
20260831001506 79 358 4.0 7.0 0.00 0.00 0.00 76 1013.0